Location: Bacea
(45.9500°N, 22.6667°E)
Time: 15:18:44
(UTC+00:00)

Envisat - Pass Details

Date: 02 February 2022
Orbit: 764 x 765 km, 98.2° (Epoch: 15 May)

Event Time Altitude Azimuth Distance (km) Brightness Sun altitude
Rises 03:17:12 0° 15° (NNE) 3,242 6.5 -26.8°
Reaches altitude 10° 03:19:31 10° 18° (NNE) 2,312 5.7 -26.4°
Maximum altitude 03:24:37 71° 102° (ESE) 810 3.2 -25.6°
Drops below altitude 10° 03:29:40 10° 187° (S) 2,296 5.4 -24.7°
Sets 03:31:58 0° 189° (S) 3,218 6.1 -24.3°
